STARLINK-32547, 61919

Orbit data source: Space-Track

STARLINK-32547, 61919 is a payload satellite owned by SpaceX/Seattle (US) in LEO that was launched on Mon, 11 Nov 2024 UTC via an FALCON 9 launch vehicle from the Air Force Eastern Test Range (AFETR). Payload-class satellites include a variety of spacecraft equipped with specific instruments for various scientific and technological missions. These include communications satellites like Starlink; space stations such as the ISS; scientific satellites like the Hubble; Earth observation satellites from companies like Planet Labs, Umbra, and HawkEye 360; GPS; miniature CubeSats for education and research; and military/defense satellites.

Loading next visibility...
Identifier
61919, 2024-207H
Orbit
LEO
Country
Flag of USUS
Related business
Manufacturer
SpaceX/Seattle
Mission
Operational Commercial Communications
Bus & Motor
STARLINK V2M, Unknown motor
Mass
730 kg wet, ~700 kg dry
Launch date (UTC)
2024-11-11 (10 months ago)
Launch vehicle
FALCON 9
Launch site
Air Force Eastern Test Range (AFETR)
Object type
Payload
Rocket body
Debris
Shape & HBR
Box + 2 Pan, 14.5 m
Radar Cross Section
36.964 m², Large (>1 m²)

Expand to show TLE details & history
Last TLE update: 1 day ago

TLE from 1 day ago
0 STARLINK-32547
1 61919U 24207H   25261.17987973  .00029291  00000-0  10687-2 0  9995
2 61919  42.9999 175.5791 0001942 256.9006 103.1629 15.27609919 48338
Epoch: 2025-09-18T04:19Z
TLE epoch observation values (Epoch: 2025-09-18T04:19:01.608Z)
Latitude
-0.00002°
Longitude
113.47719°
Altitude
483.039 km
Speed
7.626 km/s
True Right ascension
11h 42m 18s
True Declination
0° 00' 00"
Sunlit
Object was in daylight at epoch
Visualization orbit readout
Latitude
Unknown
Longitude
Unknown
Altitude
Unknown
Speed
Unknown
Apparent Right ascension
Unknown
Apparent Declination
Unknown
Sunlit
N/A
Visualization observer readout
Local Sidereal Time
00:29:43
Azimuth
Unknown
Elevation
Unknown
Doppler factor
Unknown
Orbital elements
Apogee altitude
486.238 km
Perigee altitude
483.572 km
Semi-major axis
6,863.042 km
Eccentricity
0.00019
Inclination
42.9999°
RAAN
175.5791°
Arg. of periapsis
256.9006°
True anomaly
103.18457°
Mean anomaly
103.1629°
Eccentric anomaly
103.17373°
Mean motion
3.8174 °/min
Orbital period
94.3 mins
BSTAR
0.0010687
Loading maneuver chart data...
Computing Atmospheric mass density...
Loading historical data...
Loading historical data...
Loading historical data...
Loading historical data...
Loading historical data...
Loading historical data...
Loading historical data...

Documentation

Showing up to 5 results
|